This demonstration page uses our WeatherBlox Daily Observations layout. Learn more.

Left ArrowRight Arrow

Hourly Observations for January 2, 2017

Temp ( °F °C ) Dew Point ( °F °C ) Humidity (%) Winds ( mph kmh ) Pressure ( in mb ) Visibility ( mi km ) Precip ( " mm )
12:15 am 00:15 Cloudy 34 1 21 -6 60 60 ESE 9 15 29.85 1011 10 16 0.00 0.00
12:35 am 00:35 Cloudy 34 1 23 -5 65 65 ESE 10 17 29.85 1011 10 16 0.00 0.00
12:55 am 00:55 Cloudy 34 1 23 -5 65 65 ESE 12 19 29.83 1010 10 16 0.00 0.00
1:15 am 01:15 Cloudy 34 1 25 -4 70 70 ESE 9 15 29.83 1010 10 16 0.00 0.00
1:35 am 01:35 Cloudy 34 1 25 -4 70 70 E 7 11 29.83 1010 10 16 0.00 0.00
1:55 am 01:55 Cloudy 34 1 25 -4 70 70 ESE 8 13 29.83 1010 10 16 0.00 0.00
2:15 am 02:15 Cloudy 36 2 25 -4 65 65 E 7 11 29.83 1010 10 16 0.00 0.00
2:35 am 02:35 Cloudy 36 2 27 -3 70 70 E 6 9 29.83 1010 10 16 0.00 0.00
2:55 am 02:55 Cloudy 36 2 27 -3 70 70 E 7 11 29.83 1010 10 16 0.00 0.00
3:15 am 03:15 Cloudy 34 1 27 -3 75 75 E 9 15 29.83 1010 10 16 0.00 0.00
3:35 am 03:35 Cloudy 36 2 27 -3 70 70 E 9 15 29.83 1010 10 16 0.00 0.00
3:55 am 03:55 Cloudy 34 1 27 -3 75 75 ESE 9 15 29.83 1010 10 16 0.00 0.00
4:15 am 04:15 Cloudy 34 1 28 -2 81 81 ESE 9 15 29.85 1011 10 16 0.00 0.00
4:35 am 04:35 Cloudy 34 1 28 -2 81 81 ESE 12 19 29.83 1010 6 10 0.00 0.00
4:55 am 04:55 Cloudy 34 1 28 -2 81 81 ESE 7 11 29.83 1010 4 6 0.00 0.00
5:15 am 05:15 Cloudy 34 1 28 -2 81 81 E 8 13 29.83 1010 3 4 0.00 0.00
5:35 am 05:35 Cloudy 34 1 28 -2 81 81 E 8 13 29.83 1010 2 2 0.00 0.00
5:55 am 05:55 Cloudy 34 1 30 -1 87 87 E 7 11 29.83 1010 1 2 0.00 0.00
6:15 am 06:15 Cloudy 32 0 28 -2 87 87 E 8 13 29.83 1010 1 2 0.00 0.00
6:35 am 06:35 Cloudy 34 1 28 -2 81 81 E 7 11 29.83 1010 1 2 0.00 0.00
6:55 am 06:55 Cloudy 34 1 30 -1 87 87 E 7 11 29.83 1010 1 2 0.00 0.00
7:15 am 07:15 Cloudy 32 0 28 -2 87 87 ENE 7 11 29.83 1010 1 1 0.00 0.00
7:35 am 07:35 Cloudy 32 0 28 -2 87 87 NE 10 17 29.85 1011 1 1 0.00 0.00
7:55 am 07:55 Cloudy 32 0 28 -2 87 87 ENE 8 13 29.85 1011 1 1 0.00 0.00
8:15 am 08:15 Cloudy 32 0 28 -2 87 87 NE 8 13 29.88 1012 5 8 0.00 0.00
8:35 am 08:35 Cloudy 34 1 30 -1 87 87 N 9 15 29.88 1012 0 0 0.00 0.00
8:55 am 08:55 Cloudy 34 1 30 -1 87 87 NNE 9 15 29.88 1012 1 1 0.00 0.00
9:15 am 09:15 Cloudy 34 1 30 -1 87 87 NE 7 11 29.88 1012 1 1 0.00 0.00
9:35 am 09:35 Cloudy 34 1 30 -1 87 87 ENE 9 15 29.85 1011 1 2 0.00 0.00
9:55 am 09:55 Cloudy 34 1 30 -1 87 87 NE 8 13 29.88 1012 1 2 0.00 0.00
10:15 am 10:15 Cloudy 34 1 28 -2 81 81 ENE 9 15 29.88 1012 1 1 0.00 0.00
10:35 am 10:35 Cloudy 34 1 30 -1 87 87 ENE 9 15 29.88 1012 1 1 0.00 0.00
10:55 am 10:55 Cloudy 34 1 30 -1 87 87 ENE 9 15 29.88 1012 1 1 0.00 0.00
11:15 am 11:15 Cloudy 34 1 30 -1 87 87 NE 8 13 29.88 1012 1 1 0.00 0.00
11:35 am 11:35 Cloudy 34 1 30 -1 87 87 ENE 9 15 29.85 1011 1 1 0.00 0.00
11:55 am 11:55 Cloudy 34 1 30 -1 87 87 NE 9 15 29.85 1011 0 0 0.00 0.00
12:15 pm 12:15 Cloudy 34 1 30 -1 87 87 NE 7 11 29.85 1011 0 0 0.00 0.00
12:35 pm 12:35 Cloudy 34 1 30 -1 87 87 NNE 6 9 29.85 1011 0 0 0.00 0.00
12:55 pm 12:55 Cloudy 34 1 30 -1 87 87 N 9 15 29.85 1011 0 0 0.00 0.00
1:15 pm 13:15 Cloudy 34 1 30 -1 87 87 N 9 15 29.85 1011 0 0 0.00 0.00
1:35 pm 13:35 Cloudy 34 1 30 -1 87 87 N 9 15 29.85 1011 0 0 0.00 0.00
1:55 pm 13:55 Cloudy 34 1 30 -1 87 87 N 12 19 29.83 1010 0 0 0.00 0.00
2:15 pm 14:15 Cloudy 34 1 30 -1 87 87 NNW 9 15 29.85 1011 0 0 0.00 0.00
2:35 pm 14:35 Cloudy 34 1 30 -1 87 87 N 9 15 29.88 1012 1 1 0.00 0.00
2:55 pm 14:55 Cloudy 34 1 28 -2 81 81 N 13 20 29.88 1012 1 1 0.00 0.00
3:15 pm 15:15 Cloudy 34 1 30 -1 87 87 N 12 19 29.88 1012 1 1 0.00 0.00
3:35 pm 15:35 Cloudy 34 1 30 -1 87 87 NNW 14 22 29.91 1013 1 1 0.00 0.00
3:55 pm 15:55 Cloudy 34 1 30 -1 87 87 NNW 12 19 29.94 1014 1 2 0.00 0.00
4:15 pm 16:15 Cloudy 34 1 30 -1 87 87 N 12 19 29.94 1014 2 2 0.00 0.00
4:35 pm 16:35 Cloudy 34 1 30 -1 87 87 N 16 26 29.94 1014 2 2 0.00 0.00
4:55 pm 16:55 Cloudy 34 1 30 -1 87 87 N 12 19 29.94 1014 2 3 0.00 0.00
5:15 pm 17:15 Cloudy 34 1 30 -1 87 87 N 16 26 29.94 1014 2 3 0.00 0.00
5:35 pm 17:35 Cloudy 34 1 28 -2 81 81 N 18 30 29.97 1015 3 5 0.00 0.00
5:55 pm 17:55 Cloudy 32 0 28 -2 87 87 NNW 25 41 30.00 1016 5 8 0.00 0.00
6:15 pm 18:15 Cloudy 30 -1 27 -3 86 86 N 23 37 30.03 1017 5 8 0.00 0.00
6:35 pm 18:35 Cloudy 28 -2 25 -4 86 86 NNW 21 33 30.03 1017 8 13 0.00 0.00
6:55 pm 18:55 Cloudy 28 -2 23 -5 80 80 N 25 41 30.03 1017 9 14 0.00 0.00
7:15 pm 19:15 Cloudy 27 -3 21 -6 80 80 N 22 35 30.09 1019 10 16 0.00 0.00
7:35 pm 19:35 Cloudy 27 -3 21 -6 80 80 N 21 33 30.09 1019 10 16 0.00 0.00
7:55 pm 19:55 Cloudy 27 -3 21 -6 80 80 N 22 35 30.12 1020 10 16 0.00 0.00
8:15 pm 20:15 Cloudy 25 -4 19 -7 80 80 N 24 39 30.12 1020 10 16 0.00 0.00
8:35 pm 20:35 Cloudy 25 -4 18 -8 74 74 NNW 20 31 30.12 1020 10 16 0.00 0.00
8:55 pm 20:55 Cloudy 25 -4 18 -8 74 74 NNW 21 33 30.15 1021 10 16 0.00 0.00
9:15 pm 21:15 Cloudy 23 -5 16 -9 74 74 NNW 18 30 30.15 1021 10 16 0.00 0.00
9:35 pm 21:35 Cloudy 23 -5 12 -11 63 63 N 21 33 30.15 1021 10 16 0.00 0.00
9:55 pm 21:55 Cloudy 21 -6 14 -10 74 74 NNW 22 35 30.18 1022 10 16 0.00 0.00
10:15 pm 22:15 Cloudy 21 -6 12 -11 68 68 N 22 35 30.18 1022 10 16 0.00 0.00
10:35 pm 22:35 Cloudy 21 -6 12 -11 68 68 NNW 21 33 30.18 1022 10 16 0.00 0.00
10:55 pm 22:55 Cloudy 19 -7 10 -12 68 68 N 25 41 30.21 1023 10 16 0.00 0.00
11:15 pm 23:15 Cloudy 19 -7 9 -13 63 63 NNW 20 31 30.21 1023 10 16 0.00 0.00
11:35 pm 23:35 Cloudy 18 -8 9 -13 68 68 N 24 39 30.27 1025 10 16 0.00 0.00
11:55 pm 23:55 Mostly Cloudy 18 -8 9 -13 68 68 N 17 28 30.27 1025 10 16 0.00 0.00

Powered by AerisWeather